Tracking 19176 objects as of 26-May-2018
HD Live streaming from Space Station
objects crossing your sky now

FALCON 9 R/B

Track FALCON 9 R/B now!
10-day predictions


NORAD ID: 37253
Int'l Code: 2010-066K
Perigee: 285.1 km
Apogee: 10,230.0 km
Inclination: 34.5 °
Period: 208.0 minutes
Semi major axis: 11628 km
RCS: 20.0149 m2 (large)
Launch date: December 8, 2010
Source: United States (US)
Launch site: AIR FORCE EASTERN TEST RANGE (AFETR)

Note: This is a ROCKET BODY
aabbcc
Your satellite tracking list
Your tracking list is empty




NASA's NSSDC Master Catalog

Two Line Element Set (TLE):
1 37253U 10066K   18145.44518657 +.00002936 +00000-0 +21958-3 0  9990
2 37253 034.5185 199.1350 4276062 225.6451 090.2728 06.92329404184244
Source of the keplerian elements: AFSPC